Regional Weather Roundup
Issued by NWS

Home | Current Version | Previous Version | Graphics & Text | Print | Product List | Glossary On
Versions: 1 2 3 4 5 6 7 8 9 10 11 12 13 14 15 16 17 18 19 20 21 22 23 24 25 26 27 28 29 30 31 32 33 34 35 36 37 38 39 40 41 42 43 44 45 46 47 48 49 50
000
ASUS43 KDTX 270601
RWRMI
MICHIGAN HOURLY REGIONAL WEATHER ROUNDUP
NATIONAL WEATHER SERVICE DETROIT/PONTIAC MI
100 AM EST TUE JAN 27 2015

NOTE: "FAIR" INDICATES FEW OR NO CLOUDS BELOW 12,000 FEET WITH NO
SIGNIFICANT WEATHER AND/OR OBSTRUCTION TO VISIBILITY.

MIZ047>049-052>055-059>063-066>070-074>076-081>083-270700-
SOUTHEAST LOWER MICHIGAN

CITY           SKY/WX    TMP DP  RH WIND       PRES   REMARKS
ADRIAN         CLEAR     14  10  84 CALM      29.97S
6HR MIN TEMP:  12; 6HR MAX TEMP:  19;

ALMA           CLOUDY    16  13  89 CALM      29.99F
ANN ARBOR      CLEAR     10   5  80 CALM      29.97R
BAD AXE        CLEAR      3   1  88 CALM      30.00S
CARO           CLEAR      6   3  88 CALM      29.99S
DETROIT CITY   CLEAR     18  10  71 NE5       29.98S WCI  11
6HR MIN TEMP:  18; 6HR MAX TEMP:  20;

DETROIT        PTCLDY    14   9  80 NW5       29.98S WCI   6
6HR MIN TEMP:  13; 6HR MAX TEMP:  19;

FLINT          CLEAR     13   6  74 CALM      29.98S
6HR MIN TEMP:  11; 6HR MAX TEMP:  21;

GROSSE ILE     PTCLDY    10   9  92 CALM      29.96S
HILLSDALE      MOCLDY    16   9  75 CALM      29.92S
6HR MIN TEMP:  11; 6HR MAX TEMP:  21;

HOWELL         CLEAR     11   9  90 CALM      29.96S

CITY           SKY/WX    TMP DP  RH WIND       PRES   REMARKS
JACKSON        MOCLDY    17  10  74 E5        29.95R WCI  10
6HR MIN TEMP:  16; 6HR MAX TEMP:  20;

LAMBERTVILLE   PTCLDY    10   7  85 CALM      29.97F FOG
LANSING        PTCLDY    15  10  80 E5        29.97F WCI   8
6HR MIN TEMP:  14; 6HR MAX TEMP:  19;

LAPEER         FAIR      13  10  87 CALM      29.98S
MASON          CLOUDY    15  10  80 CALM      29.96S
MONROE         CLEAR     10   9  92 NW3       29.96S
PONTIAC        CLEAR     10   6  84 CALM      29.95S
6HR MIN TEMP:  10; 6HR MAX TEMP:  17;

PORT HOPE        N/A     19   8  62 E13       30.00F WCI   6
6HR MIN TEMP:  18; 6HR MAX TEMP:  21;

PORT HURON     MOCLDY     7   5  92 CALM      29.99S
TRI CITIES     CLEAR     12   7  80 N5        30.01S WCI   4
6HR MIN TEMP:  12; 6HR MAX TEMP:  18;

TROY           CLEAR     18  12  79 N3        29.99S
SAGINAW HB     CLEAR     12   9  85 CALM      30.00S
$$
MIZ043>046-050>051-056>058-064>065-071>073-077>080-270700-
SOUTHWEST LOWER MICHIGAN

CITY           SKY/WX    TMP DP  RH WIND       PRES   REMARKS
BATTLE CREEK   CLOUDY    22   9  57 NE6       29.95R WCI  14
6HR MIN TEMP:  22; 6HR MAX TEMP:  25;

BENTON HARBOR  CLOUDY    22  13  68 E5        29.95S WCI  16
6HR MIN TEMP:  22; 6HR MAX TEMP:  23;

BIG RAPIDS     CLOUDY    18  11  73 E3        29.97S
6HR MIN TEMP:  17; 6HR MAX TEMP:  19;

COLDWATER      CLOUDY    19  12  74 CALM      29.93S
6HR MIN TEMP:  16; 6HR MAX TEMP:  19;

FREMONT        CLOUDY    18   9  66 E6        29.98S WCI  10
6HR MIN TEMP:  18; 6HR MAX TEMP:  21;

HOLLAND        CLOUDY    23  11  60 E8        29.97S WCI  14
6HR MIN TEMP:  22; 6HR MAX TEMP:  24;

GRAND RAPIDS   CLOUDY    18  11  74 E7        29.97S WCI   9
6HR MIN TEMP:  18; 6HR MAX TEMP:  21;

IONIA          CLOUDY    18  13  81 E6        29.96F WCI  10
KALAMAZOO      CLOUDY    22   8  55 E3        29.94F
6HR MIN TEMP:  21; 6HR MAX TEMP:  23;

LUDINGTON      CLOUDY    21  10  62 E6        30.01R WCI  13
6HR MIN TEMP:  20; 6HR MAX TEMP:  22;

MARSHALL       CLOUDY    18  10  69 CALM      29.94S
MOUNT PLEASANT CLOUDY    16  11  81 NE3       29.99S
6HR MIN TEMP:  14; 6HR MAX TEMP:  18;

MUSKEGON       CLOUDY    21  10  62 E6        29.99R WCI  13
6HR MIN TEMP:  21; 6HR MAX TEMP:  22;

SOUTH HAVEN    CLOUDY    24  10  56 E3        29.95F
$$
MIZ016>042-270700-
NORTHERN LOWER MICHIGAN

CITY           SKY/WX    TMP DP  RH WIND       PRES   REMARKS
ALPENA         CLOUDY    16  10  77 NE5       30.05R WCI   9
6HR MIN TEMP:  14; 6HR MAX TEMP:  20; 6HR PCP: TRACE;

BEAVER ISLAND  CLOUDY    20  12  71 CALM      30.06R
6HR MIN TEMP:  20; 6HR MAX TEMP:  20;

BELLAIRE       CLOUDY    19  11  71 CALM      30.05R
6HR MIN TEMP:  13; 6HR MAX TEMP:  20;

CADILLAC       CLOUDY    16  10  79 CALM      29.96R
CHARLEVOIX     CLOUDY    19  12  74 E7        30.08R WCI  10
6HR MIN TEMP:  18; 6HR MAX TEMP:  19;

FRANKFORT      CLOUDY    20  11  68 E7        30.02R WCI  11
GAYLORD        CLOUDY    15  11  83 NE5       29.99R WCI   8
6HR MIN TEMP:  15; 6HR MAX TEMP:  17;

GRAYLING       CLOUDY    16  11  83 NE5       30.00R WCI   8
6HR MIN TEMP:  11; 6HR MAX TEMP:  16;

HARBOR SPRINGS CLOUDY    18  11  75 CALM      30.06R
HOUGHTON LAKE  CLOUDY    15   9  76 NE5       29.98S WCI   8
6HR MIN TEMP:  11; 6HR MAX TEMP:  16;

MANISTEE       CLOUDY    19   9  63 E8        30.01R WCI   9
OSCODA         PTCLDY    20   8  59 E7        30.01S WCI  11
PELLSTON       CLOUDY    18  11  74 NE3       30.07R
6HR MIN TEMP:  16; 6HR MAX TEMP:  20;

ROGERS CITY    LGT SNOW  19  17  93 E8        30.07R WCI   9
TRAVERSE CITY  CLOUDY    20  11  68 E3        30.03R
6HR MIN TEMP:  19; 6HR MAX TEMP:  22;

$$
MIZ007>008-015-270700-
EASTERN UPPER MICHIGAN

CITY           SKY/WX    TMP DP  RH WIND       PRES   REMARKS
KINROSS        MOCLDY    10   3  72 E10       30.09R WCI  -3
6HR MIN TEMP:   9; 6HR MAX TEMP:  10;

MACKINAC ISLAN LGT SNOW  17  12  82 E12G20    30.07R WCI   4
6HR MIN TEMP:  17; 6HR MAX TEMP:  21;

NEWBERRY       CLOUDY    10   5  80 E7        30.06S WCI  -1
6HR MIN TEMP:  10; 6HR MAX TEMP:  16;

S. S. MARIE    MOCLDY    10  -3  55 E6        30.11R WCI   0
6HR MIN TEMP:  10; 6HR MAX TEMP:  11;

MUNISING         N/A     20  13  74 VRB5      30.05R WCI  13
6HR MIN TEMP:  20; 6HR MAX TEMP:  22; 6HR PCP:  0.02;

$$
MIZ004>006-011>014-085-270700-
CENTRAL UPPER MICHIGAN

CITY           SKY/WX    TMP DP  RH WIND       PRES   REMARKS
MANISTIQUE     LGT SNOW  18  16  89 E6        30.05R WCI  10
ESCANABA       CLOUDY    21  19  93 CALM      30.01R
6HR MIN TEMP:  21; 6HR MAX TEMP:  25;

MENOMINEE      MOCLDY    23  19  86 E7        29.99R WCI  15
6HR MIN TEMP:  21; 6HR MAX TEMP:  25;

SAWYER-GWINN   LGT SNOW  17  14  90 E3        29.99R
$$
MIZ001>003-009>011-084-270700-
WESTERN UPPER MICHIGAN

CITY           SKY/WX    TMP DP  RH WIND       PRES   REMARKS
IRON MOUNTAIN  FLURRIES  20  16  84 E6        29.96R WCI  12
6HR MIN TEMP:  20; 6HR MAX TEMP:  22; 6HR PCP: TRACE;

HOUGHTON       CLOUDY    21  18  88 E6        29.96R WCI  13
6HR MIN TEMP:  18; 6HR MAX TEMP:  21; 6HR PCP:  0.05;

COPPER HARBOR    N/A     24  18  77 SW8G20    30.01R WCI  15
6HR MIN TEMP:  24; 6HR MAX TEMP:  25; 6HR PCP:  0.07;

IRONWOOD       CLOUDY    21  18  86 CALM      29.92R
6HR MIN TEMP:  21; 6HR MAX TEMP:  21;

$$

ABBREVIATIONS USED IN REMARKS
   TC - TEMPERATURE IN CELSIUS
  WCI - WIND CHILL INDEX
   HX - HEAT INDEX
  VSB - VISIBILITY



USA.gov is the U.S. government's official web portal to all federal, state and local government web resources and services.